Location: Chełm
(51.1339°N, 23.4725°E)
Time: 11:20:46
(UTC+01:00)

ISS - Visible Passes

Search period start: 24 January 2019 00:00
Search period end: 03 February 2019 00:00
Orbit: 404 x 410 km, 51.6° (Epoch: 24 January)

Date Brightness Start Highest point End Pass type
(mag) Time Alt. Az. Time Alt. Az. Time Alt. Az.
24 Jan -2.2 17:49:29 10° SSW 17:52:03 22° SE 17:52:03 22° SE visible
25 Jan -1.6 16:59:04 10° S 17:00:57 14° SE 17:02:51 10° ESE visible
25 Jan -2.2 18:33:43 10° SW 18:35:41 31° SW 18:35:41 31° SW visible
26 Jan -3.0 17:42:34 10° SW 17:45:40 38° SSE 17:46:30 32° ESE visible
26 Jan -0.5 19:18:45 10° W 19:19:14 13° W 19:19:14 13° W visible
27 Jan -2.3 16:51:35 10° SSW 16:54:24 26° SSE 16:57:14 10° E visible
27 Jan -3.1 18:27:21 10° WSW 18:30:00 53° WSW 18:30:00 53° WSW visible
28 Jan -3.7 17:36:00 10° WSW 17:39:17 63° SSE 17:40:43 30° E visible
28 Jan -0.9 19:12:30 10° W 19:13:26 17° W 19:13:26 17° W visible
29 Jan -3.1 16:44:45 10° SW 16:47:55 45° SSE 16:51:06 10° E visible
29 Jan -3.7 18:21:03 10° W 18:24:07 73° WNW 18:24:07 73° WNW visible
30 Jan -3.9 17:29:37 10° WSW 17:32:56 88° SSE 17:34:47 24° E visible
30 Jan -1.2 19:06:13 10° W 19:07:30 22° W 19:07:30 22° W visible
31 Jan -3.9 18:14:44 10° W 18:18:03 80° N 18:18:09 79° NNE visible
01 Feb -3.8 17:23:15 10° W 17:26:35 80° N 17:28:49 19° E visible
01 Feb -1.7 18:59:50 10° W 19:01:32 27° W 19:01:32 27° W visible
02 Feb -3.9 18:08:21 10° W 18:11:41 87° SSW 18:12:12 60° ESE visible
